Location: Cardiff-by-the-Sea
(33.0217°N, 117.2812°W)
Time: 11:28:26
(UTC+00:00)

Daily predictions for brighter satellites

Satellite Brightness Start Highest point End
(mag) Time Altitude Azimuth Time Altitude Azimuth Time Altitude Azimuth
COSMOS 2428 3.6 12:00:32 10° NW 12:05:17 28° WSW 12:10:02 10° SSW
Delta 2 Rocket 4.2 12:03:19 10° W 12:07:38 40° SSW 12:12:25 10° SE
CZ-4C R/B 4.2 12:04:14 10° SSE 12:08:29 60° ENE 12:12:48 10° N
Cosmos 2219 3.6 12:08:00 10° SW 12:13:28 50° WNW 12:18:57 10° N
Cosmos 1544 2.9 12:10:43 10° S 12:14:13 78° W 12:17:43 10° N
OAO 3 Rocket 3.4 12:10:13 10° W 12:15:10 76° N 12:20:03 10° ENE
